Location: Newark
(34.6283°N, 36.0776°E)
Time: 03:37:14
(UTC+00:00)

Tiros 1 despin weight - Pass Details

Date: 23 September 2019
Orbit: 594 x 643 km, 48.2° (Epoch: 17 October)

Event Time Altitude Azimuth Distance (km) Brightness Sun altitude
Rises 09:49:10 0° 271° (W) 2,894 ? 55.0°
Reaches altitude 10° 09:51:54 10° 286° (WNW) 1,979 ? 54.9°
Maximum altitude 09:55:31 23° 339° (NNW) 1,317 ? 54.7°
Drops below altitude 10° 09:59:06 10° 32° (NNE) 1,958 ? 54.6°
Sets 10:01:48 0° 47° (NE) 2,854 ? 54.4°
